Weather History for VHHH - November, 2012

Change the Weather History Date:

Monday, November 12, 2012

  Actual Average Record
Temperature  
Mean Temperature 72 °F -  
Max Temperature 75 °F 73 °F 87 °F (2005)
Min Temperature 68 °F 63 °F 57 °F (2000)
Cooling Degree Days 6    
Growing Degree Days 22 (Base 50)    
Moisture  
Dew Point 58 °F    
Average Humidity 63    
Maximum Humidity 73    
Minimum Humidity 56    
Precipitation  
Precipitation 0.00 in - - ()
Sea Level Pressure  
Sea Level Pressure 30.06 in    
Wind  
Wind Speed 8 mph ()    
Max Wind Speed 15 mph    
Max Gust Speed -    
Visibility 5.6 miles    
Events      
Averages and records for this station are not official NWS values.
T = Trace of Precipitation, MM = Missing Value Source: Averaged Metar Reports

Daily Weather History Graph

Daily Weather History Graph

Search for Another Location

Airport or City:

Trip Planner

Search our weather history database for the weather conditions in past years. The results will help you decide how hot, cold, wet, or windy it might be!

Date:

Astronomy

Nov. 12, 2012 Rise Set
Actual Time 6:34 AM HKT 5:41 PM HKT
Civil Twilight 6:11 AM HKT 6:05 PM HKT
Nautical Twilight 5:44 AM HKT 6:32 PM HKT
Astronomical Twilight 5:17 AM HKT 6:59 PM HKT
Moon 4:30 AM HKT (11/12) 4:15 PM HKT (11/12)
Length of Visible Light 11h 54m
Length of Day
11h 07m
Waning Crescent, 5% of the Moon is Illuminated
Nov 12
Waning Crescent
Nov 14
New
Nov 20
First Quarter
Nov 28
Full
Dec 6
Last Quarter

Hourly Weather History & Observations

Time (HKT) Temp. Dew Point Humidity Pressure Visibility Wind Dir Wind Speed Gust Speed Precip Events Conditions
12:00 AM 69.8 °F 53.6 °F 56% 30.09 in 6.2 mi NE 15.0 mph - N/A   Scattered Clouds
12:30 AM 69.8 °F 53.6 °F 56% 30.09 in 6.2 mi NE 9.2 mph - N/A   Scattered Clouds
1:00 AM 68.0 °F 53.6 °F 60% 30.06 in 6.2 mi Variable 6.9 mph - N/A   Scattered Clouds
1:30 AM 68.0 °F 53.6 °F 60% 30.06 in 6.2 mi ENE 8.1 mph - N/A   Scattered Clouds
2:00 AM 68.0 °F 53.6 °F 60% 30.06 in 6.2 mi NE 8.1 mph - N/A   Scattered Clouds
2:30 AM 68.0 °F 53.6 °F 60% 30.06 in 6.2 mi ENE 12.7 mph - N/A   Scattered Clouds
3:00 AM 68.0 °F 53.6 °F 60% 30.06 in 6.2 mi ENE 9.2 mph - N/A   Scattered Clouds
3:30 AM 68.0 °F 55.4 °F 64% 30.04 in 6.2 mi ENE 9.2 mph - N/A   Scattered Clouds
4:00 AM 68.0 °F 55.4 °F 64% 30.04 in 6.2 mi ENE 10.4 mph - N/A   Scattered Clouds
4:30 AM 68.0 °F 55.4 °F 64% 30.04 in 6.2 mi ENE 6.9 mph - N/A   Scattered Clouds
5:00 AM 68.0 °F 55.4 °F 64% 30.06 in 6.2 mi ENE 8.1 mph - N/A   Scattered Clouds
5:30 AM 68.0 °F 55.4 °F 64% 30.06 in 6.2 mi East 4.6 mph - N/A   Scattered Clouds
6:00 AM 68.0 °F 55.4 °F 64% 30.06 in 6.2 mi East 6.9 mph - N/A   Scattered Clouds
6:30 AM 68.0 °F 55.4 °F 64% 30.06 in 6.2 mi ENE 11.5 mph - N/A   Scattered Clouds
7:00 AM 68.0 °F 55.4 °F 64% 30.06 in 6.2 mi NE 4.6 mph - N/A   Scattered Clouds
7:30 AM 68.0 °F 55.4 °F 64% 30.09 in 6.2 mi North 4.6 mph - N/A   Scattered Clouds
8:00 AM 69.8 °F 55.4 °F 60% 30.09 in 6.2 mi ENE 5.8 mph - N/A   Scattered Clouds
8:30 AM 69.8 °F 55.4 °F 60% 30.09 in 6.2 mi North 5.8 mph - N/A   Scattered Clouds
9:00 AM 69.8 °F 55.4 °F 60% 30.12 in 6.2 mi North 9.2 mph - N/A   Scattered Clouds
9:30 AM 69.8 °F 55.4 °F 60% 30.12 in 6.2 mi North 10.4 mph - N/A   Scattered Clouds
10:00 AM 71.6 °F 55.4 °F 57% 30.12 in 6.2 mi North 6.9 mph - N/A   Scattered Clouds
10:30 AM 69.8 °F 55.4 °F 60% 30.12 in 6.2 mi NNE 4.6 mph - N/A   Scattered Clouds
11:00 AM 71.6 °F 57.2 °F 60% 30.09 in 6.2 mi North 9.2 mph - N/A   Scattered Clouds
11:30 AM 71.6 °F 57.2 °F 60% 30.09 in 5.6 mi North 10.4 mph - N/A   Scattered Clouds
12:00 PM 71.6 °F 57.2 °F 60% 30.06 in 5.6 mi North 6.9 mph - N/A   Scattered Clouds
12:30 PM 71.6 °F 57.2 °F 60% 30.06 in 5.6 mi NNE 4.6 mph - N/A   Scattered Clouds
1:00 PM 73.4 °F 57.2 °F 57% 30.04 in 5.6 mi North 8.1 mph - N/A   Scattered Clouds
1:30 PM 75.2 °F 59.0 °F 57% 30.04 in 5.0 mi North 6.9 mph - N/A   Scattered Clouds
2:00 PM 73.4 °F 59.0 °F 61% 30.01 in 5.6 mi NE 6.9 mph - N/A   Partly Cloudy
2:30 PM 75.2 °F 59.0 °F 57% 30.01 in 5.6 mi North 5.8 mph - N/A   Partly Cloudy
3:00 PM 73.4 °F 59.0 °F 61% 30.01 in 4.3 mi North 11.5 mph - N/A   Partly Cloudy
3:30 PM 73.4 °F 60.8 °F 65% 30.01 in 3.7 mi North 13.8 mph - N/A   Partly Cloudy
4:00 PM 73.4 °F 60.8 °F 65% 30.01 in 3.7 mi NNW 11.5 mph - N/A   Partly Cloudy
4:30 PM 73.4 °F 60.8 °F 65% 30.01 in 3.7 mi NNW 11.5 mph - N/A   Partly Cloudy
5:00 PM 73.4 °F 60.8 °F 65% 30.01 in 3.7 mi NNW 12.7 mph - N/A   Partly Cloudy
5:30 PM 73.4 °F 60.8 °F 65% 30.04 in 3.7 mi NNW 12.7 mph - N/A   Scattered Clouds
6:00 PM 73.4 °F 60.8 °F 65% 30.04 in 4.3 mi NNW 11.5 mph - N/A   Scattered Clouds
6:30 PM 73.4 °F 60.8 °F 65% 30.04 in 5.6 mi NNW 10.4 mph - N/A   Scattered Clouds
7:00 PM 73.4 °F 60.8 °F 65% 30.06 in 5.6 mi North 5.8 mph - N/A   Scattered Clouds
7:30 PM 73.4 °F 60.8 °F 65% 30.06 in 5.0 mi Variable 3.5 mph - N/A   Scattered Clouds
8:00 PM 73.4 °F 60.8 °F 65% 30.06 in 5.0 mi Variable 3.5 mph - N/A   Partly Cloudy
8:30 PM 73.4 °F 62.6 °F 69% 30.06 in 5.6 mi South 3.5 mph - N/A   Partly Cloudy
9:00 PM 73.4 °F 62.6 °F 69% 30.09 in 5.6 mi SSE 6.9 mph - N/A   Partly Cloudy
9:30 PM 73.4 °F 62.6 °F 69% 30.09 in 5.6 mi SSW 4.6 mph - N/A   Partly Cloudy
10:00 PM 75.2 °F 64.4 °F 69% 30.09 in 5.6 mi Variable 2.3 mph - N/A   Partly Cloudy
10:30 PM 75.2 °F 64.4 °F 69% 30.09 in 6.2 mi ENE 3.5 mph - N/A   Partly Cloudy
11:00 PM 73.4 °F 64.4 °F 73% 30.06 in 6.2 mi Variable 2.3 mph - N/A   Partly Cloudy
11:30 PM 73.4 °F 64.4 °F 73% 30.06 in 5.6 mi NNW 9.2 mph - N/A   Partly Cloudy